| time (UTC) | temp F | wind direction | speed knots | gust knots | rain 1hr in | rain 24hr in | rain mn in | humidity % | barometer mb |
| 20260505051620 | 59 | 288 | 1.7 | 1.7 | 0.00 | 0.00 | 0.00 | 75 | 1017.0 |
| 20260505051118 | 60 | 303 | 1.7 | 2.6 | 0.00 | 0.00 | 0.00 | 74 | 1017.0 |
| 20260505050615 | 60 | 280 | 1.7 | 2.6 | 0.00 | 0.00 | 0.00 | 74 | 1017.1 |
| 20260505050114 | 60 | 314 | 1.7 | 2.6 | 0.00 | 0.00 | 0.00 | 77 | 1017.0 |
| 20260505041543 | 60 | 295 | 1.7 | 2.6 | 0.00 | 0.00 | 0.00 | 73 | 1017.2 |
| 20260505041041 | 61 | 286 | 1.7 | 1.7 | 0.00 | 0.00 | 0.00 | 75 | 1017.0 |
| 20260505040538 | 61 | 296 | 1.7 | 2.6 | 0.00 | 0.00 | 0.00 | 73 | 1017.0 |
| 20260505040035 | 61 | 299 | 1.7 | 2.6 | 0.00 | 0.00 | 0.00 | 71 | 1017.1 |
| 20260505035531 | 62 | 297 | 1.7 | 2.6 | 0.00 | 0.00 | 0.00 | 72 | 1017.0 |
| 20260505035028 | 61 | 295 | 1.7 | 1.7 | 0.00 | 0.00 | 0.00 | 73 | 1017.2 |
| 20260505034524 | 61 | 292 | 1.7 | 1.7 | 0.00 | 0.00 | 0.00 | 74 | 1016.9 |
| 20260505034021 | 61 | 289 | 1.7 | 2.6 | 0.00 | 0.00 | 0.00 | 72 | 1017.1 |
| 20260505033518 | 61 | 302 | 1.7 | 1.7 | 0.00 | 0.00 | 0.00 | 74 | 1017.2 |
| 20260505033016 | 61 | 284 | 1.7 | 2.6 | 0.00 | 0.00 | 0.00 | 71 | 1017.1 |
| 20260505032514 | 62 | 296 | 1.7 | 1.7 | 0.00 | 0.00 | 0.00 | 72 | 1016.9 |
| 20260505032010 | 62 | 301 | 1.7 | 2.6 | 0.00 | 0.00 | 0.00 | 71 | 1017.0 |
| 20260505031508 | 62 | 264 | 0.9 | 1.7 | 0.00 | 0.00 | 0.00 | 71 | 1016.9 |
| 20260505031004 | 62 | 311 | 0.9 | 1.7 | 0.00 | 0.00 | 0.00 | 69 | 1016.9 |
| 20260505030501 | 62 | 294 | 1.7 | 1.7 | 0.00 | 0.00 | 0.00 | 69 | 1017.0 |
| 20260505025955 | 63 | 243 | 0.9 | 1.7 | 0.00 | 0.00 | 0.00 | 68 | 1017.0 |
| 20260505025453 | 63 | 297 | 1.7 | 1.7 | 0.00 | 0.00 | 0.00 | 66 | 1017.2 |
| 20260505024952 | 63 | 299 | 1.7 | 2.6 | 0.00 | 0.00 | 0.00 | 68 | 1017.0 |
| 20260505024448 | 63 | 295 | 1.7 | 1.7 | 0.00 | 0.00 | 0.00 | 67 | 1017.1 |
| 20260505023946 | 64 | 308 | 1.7 | 2.6 | 0.00 | 0.00 | 0.00 | 65 | 1017.2 |
| 20260505023442 | 63 | 280 | 1.7 | 1.7 | 0.00 | 0.00 | 0.00 | 67 | 1017.1 |
| 20260505022940 | 64 | 290 | 1.7 | 1.7 | 0.00 | 0.00 | 0.00 | 68 | 1017.1 |
| 20260505022437 | 64 | 294 | 1.7 | 1.7 | 0.00 | 0.00 | 0.00 | 66 | 1017.1 |
| 20260505021934 | 64 | 292 | 1.7 | 1.7 | 0.00 | 0.00 | 0.00 | 69 | 1017.1 |
| 20260505021431 | 64 | 308 | 1.7 | 2.6 | 0.00 | 0.00 | 0.00 | 67 | 1017.0 |
| 20260505020926 | 64 | 301 | 1.7 | 1.7 | 0.00 | 0.00 | 0.00 | 68 | 1016.9 |
| 20260505020422 | 65 | 301 | 1.7 | 1.7 | 0.00 | 0.00 | 0.00 | 67 | 1016.9 |
| 20260505015919 | 64 | 299 | 1.7 | 2.6 | 0.00 | 0.00 | 0.00 | 66 | 1016.8 |
| 20260505015416 | 66 | 277 | 2.6 | 3.5 | 0.00 | 0.00 | 0.00 | 62 | 1016.8 |
| 20260505014914 | 65 | 290 | 1.7 | 1.7 | 0.00 | 0.00 | 0.00 | 64 | 1016.9 |
| 20260505014410 | 67 | 289 | 0.9 | 1.7 | 0.00 | 0.00 | 0.00 | 65 | 1016.8 |
| 20260505013907 | 67 | 301 | 1.7 | 1.7 | 0.00 | 0.00 | 0.00 | 62 | 1016.6 |
| 20260505013404 | 67 | 270 | 0.9 | 1.7 | 0.00 | 0.00 | 0.00 | 62 | 1016.7 |
| 20260505012902 | 68 | 231 | 0.9 | 1.7 | 0.00 | 0.00 | 0.00 | 64 | 1016.6 |
| 20260505012400 | 68 | 271 | 0.0 | 1.7 | 0.00 | 0.00 | 0.00 | 61 | 1016.7 |
| 20260505011856 | 68 | 291 | 1.7 | 1.7 | 0.00 | 0.00 | 0.00 | 60 | 1016.7 |
| 20260505011353 | 69 | 339 | 0.0 | 1.7 | 0.00 | 0.00 | 0.00 | 61 | 1016.5 |
| 20260505010849 | 70 | 163 | 0.0 | 1.7 | 0.00 | 0.00 | 0.00 | 62 | 1016.6 |
| 20260505010345 | 71 | 188 | 2.6 | 3.5 | 0.00 | 0.00 | 0.00 | 61 | 1016.6 |
| 20260505005841 | 71 | 178 | 2.6 | 5.2 | 0.00 | 0.00 | 0.00 | 60 | 1016.3 |
| 20260505005338 | 73 | 192 | 3.5 | 5.2 | 0.00 | 0.00 | 0.00 | 62 | 1016.4 |
| 20260505004836 | 73 | 183 | 4.3 | 6.1 | 0.00 | 0.00 | 0.00 | 56 | 1016.2 |
| 20260505004332 | 73 | 190 | 5.2 | 6.1 | 0.00 | 0.00 | 0.00 | 57 | 1016.3 |
| 20260505003829 | 73 | 184 | 5.2 | 6.1 | 0.00 | 0.00 | 0.00 | 57 | 1016.3 |
| 20260505003326 | 73 | 194 | 5.2 | 6.1 | 0.00 | 0.00 | 0.00 | 60 | 1016.3 |
| 20260505002822 | 73 | 181 | 4.3 | 6.1 | 0.00 | 0.00 | 0.00 | 55 | 1016.2 |
| 20260505002319 | 74 | 185 | 5.2 | 7.0 | 0.00 | 0.00 | 0.00 | 61 | 1016.3 |
| 20260505001818 | 74 | 180 | 5.2 | 7.0 | 0.00 | 0.00 | 0.00 | 59 | 1016.1 |
| 20260505001314 | 74 | 183 | 7.0 | 9.6 | 0.00 | 0.00 | 0.00 | 53 | 1016.1 |
| 20260505000812 | 74 | 185 | 6.1 | 8.7 | 0.00 | 0.00 | 0.00 | 55 | 1016.0 |
| 20260505000310 | 74 | 181 | 6.1 | 7.8 | 0.00 | 0.00 | 0.00 | 55 | 1016.0 |
| 20260504235806 | 74 | 190 | 7.0 | 7.8 | 0.00 | 0.00 | 0.00 | 55 | 1016.0 |
| 20260504235304 | 74 | 187 | 7.0 | 8.7 | 0.00 | 0.00 | 0.00 | 52 | 1016.0 |
| 20260504234759 | 74 | 201 | 7.0 | 7.8 | 0.00 | 0.00 | 0.00 | 56 | 1015.9 |
| 20260504234257 | 74 | 177 | 7.0 | 8.7 | 0.00 | 0.00 | 0.00 | 55 | 1016.0 |
| 20260504233753 | 74 | 189 | 7.8 | 8.7 | 0.00 | 0.00 | 0.00 | 58 | 1016.1 |
| 20260504233249 | 74 | 198 | 6.1 | 9.6 | 0.00 | 0.00 | 0.00 | 56 | 1016.1 |
| 20260504232746 | 75 | 222 | 3.5 | 7.8 | 0.00 | 0.00 | 0.00 | 59 | 1016.1 |
| 20260504232243 | 75 | 189 | 7.8 | 9.6 | 0.00 | 0.00 | 0.00 | 60 | 1016.0 |
| 20260504231740 | 75 | 189 | 7.0 | 8.7 | 0.00 | 0.00 | 0.00 | 56 | 1016.0 |
| 20260504231236 | 76 | 186 | 7.8 | 8.7 | 0.00 | 0.00 | 0.00 | 59 | 1016.0 |
| 20260504230732 | 76 | 175 | 7.0 | 9.6 | 0.00 | 0.00 | 0.00 | 56 | 1016.2 |
| 20260504230231 | 76 | 183 | 6.1 | 8.7 | 0.00 | 0.00 | 0.00 | 60 | 1016.1 |
| 20260504225729 | 76 | 184 | 7.0 | 7.8 | 0.00 | 0.00 | 0.00 | 55 | 1016.1 |
| 20260504225225 | 76 | 168 | 7.8 | 8.7 | 0.00 | 0.00 | 0.00 | 54 | 1016.1 |
| 20260504224722 | 76 | 169 | 9.6 | 11.3 | 0.00 | 0.00 | 0.00 | 55 | 1015.9 |
| 20260504224220 | 76 | 163 | 8.7 | 12.2 | 0.00 | 0.00 | 0.00 | 56 | 1016.0 |
| 20260504223716 | 76 | 195 | 4.3 | 9.6 | 0.00 | 0.00 | 0.00 | 53 | 1015.9 |
| 20260504223211 | 77 | 175 | 7.8 | 7.8 | 0.00 | 0.00 | 0.00 | 56 | 1016.0 |
| 20260504222709 | 76 | 161 | 8.7 | 9.6 | 0.00 | 0.00 | 0.00 | 57 | 1016.0 |
| 20260504222206 | 77 | 175 | 8.7 | 9.6 | 0.00 | 0.00 | 0.00 | 55 | 1015.9 |
| 20260504221703 | 77 | 179 | 7.0 | 8.7 | 0.00 | 0.00 | 0.00 | 56 | 1016.0 |
| 20260504221200 | 77 | 181 | 6.1 | 7.8 | 0.00 | 0.00 | 0.00 | 55 | 1016.1 |
| 20260504220656 | 76 | 187 | 7.8 | 8.7 | 0.00 | 0.00 | 0.00 | 58 | 1016.1 |
| 20260504220154 | 76 | 201 | 3.5 | 6.1 | 0.00 | 0.00 | 0.00 | 53 | 1016.0 |
| 20260504215650 | 78 | 182 | 3.5 | 7.0 | 0.00 | 0.00 | 0.00 | 59 | 1016.1 |
| 20260504215148 | 78 | 206 | 5.2 | 6.1 | 0.00 | 0.00 | 0.00 | 60 | 1015.9 |
| 20260504214643 | 78 | 172 | 5.2 | 7.0 | 0.00 | 0.00 | 0.00 | 55 | 1016.0 |
| 20260504214140 | 77 | 173 | 6.1 | 8.7 | 0.00 | 0.00 | 0.00 | 55 | 1016.0 |
| 20260504213636 | 77 | 152 | 6.1 | 8.7 | 0.00 | 0.00 | 0.00 | 58 | 1016.1 |
| 20260504213133 | 77 | 169 | 4.3 | 6.1 | 0.00 | 0.00 | 0.00 | 54 | 1015.9 |
| 20260504212630 | 77 | 178 | 7.0 | 7.0 | 0.00 | 0.00 | 0.00 | 53 | 1015.9 |
| 20260504212127 | 77 | 161 | 7.8 | 7.8 | 0.00 | 0.00 | 0.00 | 56 | 1016.0 |
| 20260504211624 | 77 | 164 | 6.1 | 7.0 | 0.00 | 0.00 | 0.00 | 53 | 1016.1 |
| 20260504211120 | 77 | 187 | 5.2 | 7.0 | 0.00 | 0.00 | 0.00 | 53 | 1016.0 |
| 20260504210618 | 78 | 177 | 1.7 | 6.1 | 0.00 | 0.00 | 0.00 | 56 | 1016.1 |
| 20260504210114 | 78 | 185 | 1.7 | 3.5 | 0.00 | 0.00 | 0.00 | 51 | 1016.2 |
| 20260504205612 | 78 | 202 | 3.5 | 7.0 | 0.00 | 0.00 | 0.00 | 51 | 1016.3 |
| 20260504205110 | 78 | 180 | 4.3 | 6.1 | 0.00 | 0.00 | 0.00 | 50 | 1016.4 |
| 20260504204608 | 79 | 177 | 2.6 | 5.2 | 0.00 | 0.00 | 0.00 | 50 | 1016.3 |
| 20260504204106 | 78 | 187 | 5.2 | 7.0 | 0.00 | 0.00 | 0.00 | 55 | 1016.4 |
| 20260504203605 | 77 | 186 | 1.7 | 3.5 | 0.00 | 0.00 | 0.00 | 50 | 1016.3 |
| 20260504203102 | 78 | 175 | 3.5 | 5.2 | 0.00 | 0.00 | 0.00 | 51 | 1016.5 |
| 20260504202556 | 78 | 181 | 3.5 | 7.0 | 0.00 | 0.00 | 0.00 | 49 | 1016.4 |
| 20260504202054 | 78 | 176 | 7.0 | 7.8 | 0.00 | 0.00 | 0.00 | 55 | 1016.5 |
| 20260504201551 | 79 | 184 | 3.5 | 3.5 | 0.00 | 0.00 | 0.00 | 52 | 1016.5 |
| 20260504201049 | 78 | 207 | 3.5 | 5.2 | 0.00 | 0.00 | 0.00 | 52 | 1016.5 |
| 20260504200544 | 77 | 197 | 3.5 | 5.2 | 0.00 | 0.00 | 0.00 | 51 | 1016.9 |
| 20260504200042 | 78 | 254 | 2.6 | 5.2 | 0.00 | 0.00 | 0.00 | 50 | 1016.7 |
| 20260504195538 | 78 | 165 | 4.3 | 6.1 | 0.00 | 0.00 | 0.00 | 52 | 1016.8 |
| 20260504195034 | 79 | 156 | 0.0 | 0.9 | 0.00 | 0.00 | 0.00 | 48 | 1016.8 |
| 20260504194531 | 78 | 199 | 3.5 | 6.1 | 0.00 | 0.00 | 0.00 | 49 | 1016.9 |
| 20260504194026 | 77 | 196 | 3.5 | 5.2 | 0.00 | 0.00 | 0.00 | 51 | 1017.0 |
| 20260504193523 | 76 | 192 | 3.5 | 6.1 | 0.00 | 0.00 | 0.00 | 54 | 1017.0 |
| 20260504193022 | 77 | 189 | 4.3 | 5.2 | 0.00 | 0.00 | 0.00 | 52 | 1017.2 |
| 20260504192520 | 77 | 183 | 3.5 | 5.2 | 0.00 | 0.00 | 0.00 | 51 | 1017.4 |
| 20260504192018 | 77 | 161 | 1.7 | 7.8 | 0.00 | 0.00 | 0.00 | 47 | 1017.5 |
| 20260504191515 | 77 | 216 | 1.7 | 3.5 | 0.00 | 0.00 | 0.00 | 49 | 1017.4 |
| 20260504191011 | 76 | 185 | 2.6 | 7.0 | 0.00 | 0.00 | 0.00 | 50 | 1017.6 |
| 20260504190507 | 77 | 176 | 0.9 | 3.5 | 0.00 | 0.00 | 0.00 | 50 | 1017.6 |
| 20260504190003 | 76 | 182 | 2.6 | 3.5 | 0.00 | 0.00 | 0.00 | 50 | 1017.6 |
| 20260504185501 | 76 | 181 | 5.2 | 6.1 | 0.00 | 0.00 | 0.00 | 51 | 1017.6 |
| 20260504184957 | 76 | 159 | 1.7 | 6.1 | 0.00 | 0.00 | 0.00 | 49 | 1017.8 |
| 20260504184453 | 76 | 184 | 1.7 | 3.5 | 0.00 | 0.00 | 0.00 | 50 | 1017.6 |
| 20260504183948 | 76 | 164 | 2.6 | 5.2 | 0.00 | 0.00 | 0.00 | 51 | 1017.8 |
| 20260504183446 | 75 | 183 | 3.5 | 6.1 | 0.00 | 0.00 | 0.00 | 50 | 1017.9 |
| 20260504182944 | 76 | 187 | 5.2 | 6.1 | 0.00 | 0.00 | 0.00 | 57 | 1018.0 |
| 20260504182440 | 76 | 184 | 2.6 | 5.2 | 0.00 | 0.00 | 0.00 | 52 | 1017.9 |
| 20260504181938 | 76 | 167 | 2.6 | 3.5 | 0.00 | 0.00 | 0.00 | 51 | 1018.0 |
| 20260504181435 | 76 | 187 | 3.5 | 6.1 | 0.00 | 0.00 | 0.00 | 51 | 1018.2 |
| 20260504180933 | 75 | 187 | 3.5 | 5.2 | 0.00 | 0.00 | 0.00 | 51 | 1018.1 |
| 20260504180432 | 75 | 193 | 3.5 | 5.2 | 0.00 | 0.00 | 0.00 | 53 | 1018.2 |
| 20260504175930 | 75 | 203 | 3.5 | 6.1 | 0.00 | 0.00 | 0.00 | 51 | 1018.2 |
| 20260504175426 | 76 | 195 | 5.2 | 7.0 | 0.00 | 0.00 | 0.00 | 55 | 1018.2 |
| 20260504174924 | 75 | 180 | 2.6 | 2.6 | 0.00 | 0.00 | 0.00 | 51 | 1018.3 |
| 20260504174422 | 75 | 177 | 2.6 | 6.1 | 0.00 | 0.00 | 0.00 | 51 | 1018.3 |
| 20260504173919 | 74 | 174 | 2.6 | 7.0 | 0.00 | 0.00 | 0.00 | 52 | 1018.5 |
| 20260504173415 | 74 | 185 | 7.8 | 8.7 | 0.00 | 0.00 | 0.00 | 58 | 1018.4 |
| 20260504172913 | 74 | 192 | 4.3 | 5.2 | 0.00 | 0.00 | 0.00 | 58 | 1018.8 |
| 20260504172408 | 74 | 188 | 3.5 | 6.1 | 0.00 | 0.00 | 0.00 | 55 | 1018.8 |
| 20260504171905 | 73 | 195 | 2.6 | 6.1 | 0.00 | 0.00 | 0.00 | 53 | 1018.9 |
| 20260504171402 | 72 | 182 | 4.3 | 7.8 | 0.00 | 0.00 | 0.00 | 54 | 1018.9 |
| 20260504170859 | 72 | 187 | 4.3 | 6.1 | 0.00 | 0.00 | 0.00 | 56 | 1019.0 |
| 20260504170355 | 72 | 188 | 7.8 | 7.8 | 0.00 | 0.00 | 0.00 | 60 | 1018.9 |
| 20260504160314 | 69 | 189 | 6.1 | 7.0 | 0.00 | 0.00 | 0.00 | 59 | 1019.8 |
| 20260504150739 | 67 | 190 | 3.5 | 5.2 | 0.00 | 0.00 | 0.00 | 59 | 1020.5 |
| 20260504150236 | 67 | 202 | 0.9 | 2.6 | 0.00 | 0.00 | 0.00 | 58 | 1020.8 |
| 20260504141205 | 63 | 172 | 1.7 | 2.6 | 0.00 | 0.00 | 0.00 | 62 | 1021.0 |
| 20260504140703 | 62 | 187 | 1.7 | 2.6 | 0.00 | 0.00 | 0.00 | 65 | 1021.1 |
| 20260504140158 | 62 | 175 | 2.6 | 3.5 | 0.00 | 0.00 | 0.00 | 65 | 1021.2 |
| 20260504130626 | 59 | 162 | 0.9 | 3.5 | 0.00 | 0.00 | 0.00 | 70 | 1021.2 |
| 20260504130123 | 57 | 180 | 2.6 | 3.5 | 0.00 | 0.00 | 0.00 | 72 | 1021.1 |
| 20260504110514 | 47 | 296 | 1.7 | 2.6 | 0.00 | 0.00 | 0.00 | 97 | 1020.5 |
| 20260504100436 | 46 | 296 | 1.7 | 3.5 | 0.00 | 0.00 | 0.00 | 95 | 1020.5 |
| 20260504081829 | 47 | 294 | 1.7 | 3.5 | 0.00 | 0.00 | 0.00 | 92 | 1020.6 |
| 20260504081326 | 48 | 297 | 2.6 | 2.6 | 0.00 | 0.00 | 0.00 | 93 | 1020.4 |
| 20260504080822 | 47 | 295 | 1.7 | 3.5 | 0.00 | 0.00 | 0.00 | 92 | 1020.4 |
| 20260504080319 | 47 | 288 | 1.7 | 2.6 | 0.00 | 0.00 | 0.00 | 92 | 1020.4 |
| 20260504070246 | 49 | 299 | 1.7 | 2.6 | 0.00 | 0.00 | 0.00 | 90 | 1020.4 |
| 20260504060207 | 50 | 304 | 1.7 | 3.5 | 0.00 | 0.00 | 0.00 | 87 | 1021.0 |